TimeEST,TemperatureF,Dew PointF,Humidity,Sea Level PressureIn,VisibilityMPH,Wind Direction,Wind SpeedMPH,Gust SpeedMPH,PrecipitationIn,Events,Conditions,WindDirDegrees,DateUTC
12:56 AM,-4.0,-14.1,62,30.20,-9999.0,SW,10.4,-,N/A,,Unknown,230,2013-01-23 05:56:00
1:56 AM,-5.1,-15.0,62,30.20,-9999.0,SSW,8.1,-,N/A,,Unknown,200,2013-01-23 06:56:00
2:56 AM,-7.1,-15.0,68,30.19,-9999.0,SE,4.6,-,N/A,,Unknown,140,2013-01-23 07:56:00
3:56 AM,-5.1,-14.1,65,30.18,-9999.0,SSE,6.9,-,N/A,,Unknown,150,2013-01-23 08:56:00
4:56 AM,-4.0,-13.0,65,30.17,-9999.0,SSW,8.1,-,N/A,,Unknown,210,2013-01-23 09:56:00
5:56 AM,-4.0,-11.9,69,30.15,-9999.0,SW,8.1,-,N/A,,Unknown,220,2013-01-23 10:56:00
6:56 AM,-2.9,-11.0,68,30.14,-9999.0,SW,5.8,-,N/A,,Unknown,220,2013-01-23 11:56:00
7:56 AM,-2.9,-11.0,68,30.12,-9999.0,SSW,9.2,-,N/A,,Unknown,210,2013-01-23 12:56:00
8:56 AM,-2.0,-11.0,66,30.12,-9999.0,SSW,8.1,-,N/A,,Unknown,200,2013-01-23 13:56:00
9:56 AM,-2.0,-9.9,69,30.12,-9999.0,Variable,3.5,-,N/A,,Unknown,0,2013-01-23 14:56:00
10:56 AM,1.0,-8.0,66,30.11,-9999.0,Variable,3.5,-,N/A,,Unknown,0,2013-01-23 15:56:00
11:56 AM,5.0,-5.1,63,30.09,-9999.0,South,3.5,-,N/A,,Unknown,190,2013-01-23 16:56:00
12:56 PM,10.0,-4.0,53,30.06,-9999.0,Calm,Calm,-,N/A,,Unknown,0,2013-01-23 17:56:00
1:56 PM,12.0,-4.0,49,30.04,-9999.0,WSW,3.5,-,0.01,,Unknown,240,2013-01-23 18:56:00
2:56 PM,12.0,-0.0,59,30.04,-9999.0,WSW,4.6,-,0.07,,Unknown,240,2013-01-23 19:56:00
3:56 PM,12.9,1.0,59,30.05,-9999.0,West,6.9,-,N/A,,Unknown,270,2013-01-23 20:56:00
4:56 PM,10.9,3.9,73,30.07,-9999.0,WSW,4.6,-,N/A,,Unknown,240,2013-01-23 21:56:00
5:56 PM,10.9,5.0,77,30.09,-9999.0,WSW,8.1,16.1,0.03,,Unknown,250,2013-01-23 22:56:00
6:56 PM,14.0,9.0,80,30.12,-9999.0,North,20.7,31.1,0.01,,Unknown,360,2013-01-23 23:56:00
7:56 PM,12.9,7.0,77,30.17,-9999.0,North,24.2,-,0.03,,Unknown,350,2013-01-24 00:56:00
8:56 PM,12.0,6.1,77,30.24,-9999.0,North,19.6,29.9,N/A,,Unknown,350,2013-01-24 01:56:00
9:56 PM,10.9,3.9,73,30.28,-9999.0,North,19.6,-,0.01,,Unknown,360,2013-01-24 02:56:00
10:56 PM,10.9,1.9,67,30.32,-9999.0,North,19.6,-,0.01,,Unknown,350,2013-01-24 03:56:00
11:56 PM,10.0,1.9,70,30.35,-9999.0,North,18.4,-,N/A,,Unknown,360,2013-01-24 04:56:00